Hourly Weather Veselinovo

Today, 12 July, Sunday

Time Temperature Precipitation Wind Pressure Humidity
00:00 +24°C° 0 mm 2 mps 758 mmHg 50%
01:00 +24°C° 0 mm 2 mps 758 mmHg 50%
02:00 +23°C° 0 mm 2 mps 758 mmHg 51%
03:00 +23°C° 0 mm 2 mps 757 mmHg 53%
04:00 +23°C° 0 mm 2 mps 757 mmHg 55%
05:00 +21°C° 0 mm 2 mps 757 mmHg 57%
06:00 +24°C° 0 mm 2 mps 757 mmHg 53%
07:00 +26°C° 0 mm 2 mps 757 mmHg 49%
08:00 +28°C° 0 mm 2 mps 757 mmHg 43%
09:00 +30°C° 0 mm 2 mps 757 mmHg 40%
10:00 +31°C° 0 mm 2 mps 756 mmHg 37%
11:00 +33°C° 0 mm 3 mps 756 mmHg 34%
12:00 +33°C° 0 mm 3 mps 756 mmHg 33%
13:00 +34°C° 0 mm 3 mps 755 mmHg 32%
14:00 +34°C° 0 mm 3 mps 755 mmHg 30%
15:00 +34°C° 0 mm 3 mps 755 mmHg 33%
16:00 +33°C° 0 mm 3 mps 754 mmHg 36%
17:00 +33°C° 0 mm 3 mps 754 mmHg 39%
18:00 +30°C° 0 mm 3 mps 754 mmHg 44%
19:00 +29°C° 0 mm 4 mps 754 mmHg 49%
20:00 +27°C° 0 mm 4 mps 754 mmHg 54%
21:00 +26°C° 0 mm 5 mps 754 mmHg 61%
22:00 +24°C° 0 mm 6 mps 754 mmHg 67%
23:00 +23°C° 0 mm 7 mps 754 mmHg 74%

Tomorrow, 13 July, Monday

Time Temperature Precipitation Wind Pressure Humidity
00:00 +22°C° 0.2 mm 7 mps 754 mmHg 78%
01:00 +21°C° 0.2 mm 8 mps 755 mmHg 81%
02:00 +18°C° 0.2 mm 8 mps 755 mmHg 85%
03:00 +18°C° 0.3 mm 8 mps 755 mmHg 85%
04:00 +17°C° 0.3 mm 8 mps 754 mmHg 86%
05:00 +16°C° 0.3 mm 8 mps 754 mmHg 86%
06:00 +17°C° 0.2 mm 8 mps 754 mmHg 84%
07:00 +17°C° 0.2 mm 7 mps 755 mmHg 82%
08:00 +17°C° 0.2 mm 7 mps 755 mmHg 80%
09:00 +17°C° 0.1 mm 7 mps 755 mmHg 78%
10:00 +18°C° 0.1 mm 8 mps 755 mmHg 76%
11:00 +18°C° 0.1 mm 8 mps 755 mmHg 74%
12:00 +18°C° 0 mm 8 mps 755 mmHg 72%
13:00 +20°C° 0 mm 8 mps 755 mmHg 69%
14:00 +20°C° 0 mm 8 mps 755 mmHg 66%
15:00 +20°C° 0 mm 8 mps 755 mmHg 66%
16:00 +20°C° 0 mm 8 mps 755 mmHg 66%
17:00 +18°C° 0 mm 8 mps 755 mmHg 66%
18:00 +18°C° 0 mm 7 mps 755 mmHg 66%
19:00 +17°C° 0 mm 7 mps 755 mmHg 67%
20:00 +16°C° 0 mm 6 mps 755 mmHg 67%
21:00 +16°C° 0 mm 6 mps 755 mmHg 69%
22:00 +15°C° 0 mm 6 mps 755 mmHg 70%
23:00 +15°C° 0 mm 5 mps 755 mmHg 71%

Day after tomorrow, 14 July, Tuesday

Time Temperature Precipitation Wind Pressure Humidity
00:00 +15°C° 0 mm 5 mps 755 mmHg 71%
01:00 +16°C° 0 mm 5 mps 755 mmHg 71%
02:00 +16°C° 0 mm 6 mps 755 mmHg 70%
03:00 +15°C° 0.1 mm 5 mps 755 mmHg 73%
04:00 +15°C° 0.1 mm 5 mps 755 mmHg 75%
05:00 +15°C° 0.1 mm 5 mps 755 mmHg 77%
06:00 +16°C° 0 mm 6 mps 755 mmHg 73%
07:00 +17°C° 0 mm 6 mps 755 mmHg 69%
08:00 +18°C° 0 mm 7 mps 755 mmHg 65%
09:00 +20°C° 0.1 mm 7 mps 755 mmHg 61%
10:00 +21°C° 0.1 mm 7 mps 755 mmHg 58%
11:00 +22°C° 0.1 mm 8 mps 755 mmHg 54%
12:00 +22°C° 0.3 mm 7 mps 755 mmHg 55%
13:00 +21°C° 0.3 mm 7 mps 755 mmHg 56%
14:00 +21°C° 0.3 mm 7 mps 756 mmHg 57%
15:00 +22°C° 0 mm 6 mps 756 mmHg 55%
16:00 +22°C° 0 mm 6 mps 756 mmHg 54%
17:00 +22°C° 0 mm 6 mps 756 mmHg 52%
18:00 +21°C° 0 mm 4 mps 756 mmHg 58%
19:00 +19°C° 0 mm 3 mps 756 mmHg 64%
20:00 +19°C° 0 mm 1 mps 756 mmHg 69%
21:00 +18°C° 0 mm 2 mps 757 mmHg 70%
22:00 +17°C° 0 mm 2 mps 757 mmHg 71%
23:00 +17°C° 0 mm 3 mps 757 mmHg 72%

15 July, Wednesday

Time Temperature Precipitation Wind Pressure Humidity
00:00 +16°C° 0 mm 3 mps 757 mmHg 74%
01:00 +16°C° 0 mm 3 mps 757 mmHg 76%
02:00 +16°C° 0 mm 3 mps 757 mmHg 78%
03:00 +14°C° 0 mm 3 mps 757 mmHg 80%
04:00 +14°C° 0 mm 3 mps 757 mmHg 82%
05:00 +14°C° 0 mm 3 mps 757 mmHg 84%
06:00 +17°C° 0 mm 3 mps 757 mmHg 77%
07:00 +19°C° 0 mm 3 mps 758 mmHg 69%
08:00 +21°C° 0 mm 3 mps 758 mmHg 62%
09:00 +22°C° 0 mm 3 mps 758 mmHg 56%
10:00 +24°C° 0 mm 3 mps 758 mmHg 50%
11:00 +26°C° 0 mm 3 mps 758 mmHg 44%
12:00 +27°C° 0 mm 3 mps 757 mmHg 41%
13:00 +27°C° 0 mm 3 mps 757 mmHg 38%
14:00 +28°C° 0 mm 3 mps 757 mmHg 35%
15:00 +28°C° 0 mm 3 mps 757 mmHg 35%
16:00 +28°C° 0 mm 3 mps 757 mmHg 35%
17:00 +28°C° 0 mm 3 mps 757 mmHg 35%
18:00 +26°C° 0 mm 3 mps 757 mmHg 42%
19:00 +24°C° 0 mm 3 mps 757 mmHg 48%
20:00 +21°C° 0 mm 2 mps 757 mmHg 55%
21:00 +21°C° 0 mm 2 mps 757 mmHg 58%
22:00 +21°C° 0 mm 1 mps 757 mmHg 61%
23:00 +20°C° 0 mm 1 mps 757 mmHg 64%

16 July, Thursday

Time Temperature Precipitation Wind Pressure Humidity
00:00 +20°C° 0 mm 1 mps 757 mmHg 65%
01:00 +19°C° 0 mm 1 mps 757 mmHg 67%
02:00 +17°C° 0 mm 0 mps 757 mmHg 68%
03:00 +17°C° 0 mm 0 mps 757 mmHg 68%
04:00 +17°C° 0 mm 0 mps 757 mmHg 69%
05:00 +19°C° 0 mm 1 mps 757 mmHg 69%
06:00 +21°C° 0 mm 1 mps 757 mmHg 63%
07:00 +22°C° 0 mm 1 mps 757 mmHg 57%
08:00 +24°C° 0 mm 1 mps 757 mmHg 52%
09:00 +26°C° 0 mm 1 mps 757 mmHg 47%
10:00 +27°C° 0 mm 1 mps 756 mmHg 43%
11:00 +29°C° 0 mm 1 mps 756 mmHg 39%
12:00 +29°C° 0 mm 1 mps 756 mmHg 38%
13:00 +29°C° 0 mm 1 mps 756 mmHg 36%
14:00 +30°C° 0 mm 2 mps 755 mmHg 35%
15:00 +29°C° 0 mm 2 mps 755 mmHg 37%
16:00 +29°C° 0 mm 2 mps 755 mmHg 38%
17:00 +29°C° 0 mm 2 mps 754 mmHg 40%
18:00 +28°C° 0 mm 2 mps 755 mmHg 45%
19:00 +26°C° 0 mm 3 mps 755 mmHg 50%
20:00 +25°C° 0 mm 3 mps 755 mmHg 55%
21:00 +24°C° 0 mm 3 mps 755 mmHg 58%
22:00 +23°C° 0 mm 2 mps 755 mmHg 60%
23:00 +23°C° 0 mm 2 mps 755 mmHg 62%

17 July, Friday

Time Temperature Precipitation Wind Pressure Humidity
00:00 +21°C° 0 mm 2 mps 754 mmHg 62%
01:00 +21°C° 0 mm 2 mps 754 mmHg 62%
02:00 +21°C° 0 mm 2 mps 754 mmHg 61%
03:00 +21°C° 0 mm 2 mps 754 mmHg 62%
04:00 +20°C° 0 mm 2 mps 754 mmHg 63%
05:00 +20°C° 0 mm 2 mps 754 mmHg 64%
06:00 +23°C° 0 mm 2 mps 754 mmHg 59%
07:00 +24°C° 0 mm 2 mps 754 mmHg 54%
08:00 +26°C° 0 mm 3 mps 754 mmHg 49%
09:00 +27°C° 0 mm 3 mps 754 mmHg 44%
10:00 +29°C° 0 mm 4 mps 754 mmHg 39%
11:00 +30°C° 0 mm 4 mps 754 mmHg 34%
12:00 +30°C° 0 mm 4 mps 754 mmHg 34%
13:00 +32°C° 0 mm 4 mps 754 mmHg 33%
14:00 +32°C° 0 mm 4 mps 754 mmHg 32%
15:00 +30°C° 0 mm 4 mps 754 mmHg 33%
16:00 +30°C° 0 mm 4 mps 753 mmHg 35%
17:00 +30°C° 0 mm 4 mps 753 mmHg 36%
18:00 +28°C° 0 mm 4 mps 753 mmHg 46%
19:00 +26°C° 0 mm 4 mps 754 mmHg 56%
20:00 +23°C° 0 mm 4 mps 754 mmHg 65%
21:00 +22°C° 0 mm 4 mps 754 mmHg 68%
22:00 +21°C° 0 mm 4 mps 754 mmHg 71%
23:00 +21°C° 0 mm 4 mps 754 mmHg 74%
Show more